METEOR 2-11 DEB, 42456

Orbit data source: Space-Track

METEOR 2-11 DEB, 42456 is space debris in LEO originally from a launch on Thu, 05 Jul 1984 UTC launched from the Plesetsk Missile And Space Complex (PKMTR). Debris objects in space refer to the collection of defunct objects orbiting the Earth. Examples of debris include non-operational satellites, rocket bodies, and fragments generated from explosions, collisions, or faulty payload assembly.

Loading next visibility...
Identifier
42456, 1984-072S
Orbit
LEO
Country
Flag of CISCIS
Related business
Manufacturer
Unknown
Mission
Spacecraft
Bus & Motor
Unknown
Mass
Unknown
Launch date (UTC)
1984-07-05 (42 years ago)
Launch vehicle
Unknown
Launch site
Plesetsk Missile And Space Complex (PKMTR)
Object type
Payload
Rocket body
Debris
Shape & HBR
Unknown shape, 0.1 m
Radar Cross Section
Small (<0.1 m²)

Expand to show TLE details & history
Last TLE update: 6 days ago

TLE from 6 days ago
0 METEOR 2-11 DEB
1 42456U 84072S   26127.52740938  .00001586  00000-0  11424-2 0  9992
2 42456  82.5441  57.4675 0038311 123.8996 236.5824 13.95890298581980
Epoch: 2026-05-07T12:39Z
TLE epoch observation values (Epoch: 2026-05-07T12:39:28.170Z)
Latitude
-0.00005°
Longitude
2.22785°
Altitude
926.43 km
Speed
7.381 km/s
True Right ascension
03h 49m 52s
True Declination
0° 00' 00"
Sunlit
Object was in daylight at epoch
Visualization orbit readout
Latitude
Unknown
Longitude
Unknown
Altitude
Unknown
Speed
Unknown
Apparent Right ascension
Unknown
Apparent Declination
Unknown
Sunlit
N/A
Visualization observer readout
Local Sidereal Time
13:02:40
Azimuth
Unknown
Elevation
Unknown
Doppler factor
Unknown
Orbital elements
Apogee altitude
933.1 km
Perigee altitude
877.294 km
Semi-major axis
7,283.334 km
Eccentricity
0.00383
Inclination
82.5441°
RAAN
57.4675°
Arg. of periapsis
123.8996°
True anomaly
236.21693°
Mean anomaly
236.5824°
Eccentric anomaly
236.39957°
Mean motion
3.49179 °/min
Orbital period
103.1 mins
BSTAR
0.0011424
Loading maneuver chart data...
Computing Atmospheric mass density...
Loading historical data...
Loading historical data...
Loading historical data...
Loading historical data...
Loading historical data...
Loading historical data...
Loading historical data...

Documentation

Showing up to 5 results
|